Location: Arboucave
(43.6130°N, 0.4343°W)
Time: 07:09:49
(UTC+00:00)

Cosmos 1782 Rocket - Pass Details

Date: 17 November 2025
Orbit: 599 x 626 km, 82.5° (Epoch: 13 December)

Event Time Altitude Azimuth Distance (km) Brightness Sun altitude
Rises 17:07:07 0° 187° (S) 2,897 7.4 -6.2°
Reaches altitude 10° 17:09:20 10° 187° (S) 1,994 6.6 -6.6°
Maximum altitude 17:13:46 89° 282° (WNW) 632 3.6 -7.4°
Drops below altitude 10° 17:18:13 10° 8° (N) 2,003 5.9 -8.1°
Sets 17:20:27 0° 9° (N) 2,911 6.7 -8.5°
